Pomona, NJ

2:55 PM EST on February 08, 2016 (GMT -0500)
Atlantic City International

Weather History for KACY - November, 2011

Change the Weather History Date:

Monday, November 7, 2011

  Actual Average Record
Temperature  
Mean Temperature 49 °F 50 °F  
Max Temperature 65 °F 60 °F 72 °F (1965)
Min Temperature 33 °F 40 °F 23 °F (1962)
Degree Days  
Heating Degree Days 16 16  
Month to date heating degree days 128 103  
Since 1 July heating degree days 388 461  
Cooling Degree Days 0 0  
Month to date cooling degree days 0 0  
Year to date cooling degree days 1465 1054  
Moisture  
Dew Point 39 °F    
Average Humidity 72    
Maximum Humidity 96    
Minimum Humidity 48    
Precipitation  
Precipitation 0.00 in 0.11 in 2.74 in (1953)
Month to date precipitation 0.00 0.78  
Year to date precipitation 40.36 35.57  
Snow  
Snow 0.00 in 0.00 in 2.50 in (2012)
Month to date snowfall 0.0 0.0  
Since 1 July snowfall T 0.0  
Since 1 September snowfall T 0.0  
Snow Depth 0.00 in    
Sea Level Pressure  
Sea Level Pressure 30.35 in    
Wind  
Wind Speed 2 mph (WSW)    
Max Wind Speed 12 mph    
Max Gust Speed 16 mph    
Visibility 7 miles    
Events Fog    
T = Trace of Precipitation, MM = Missing Value Source: NWS Daily Summary

Daily Weather History Graph

Daily Weather History Graph

Search for Another Location

Airport or City:

Trip Planner

Search our weather history database for the weather conditions in past years. The results will help you decide how hot, cold, wet, or windy it might be!

Date:

Astronomy

Nov. 07, 2011 Rise Set
Actual Time 6:32 AM EST 4:50 PM EST
Civil Twilight 6:04 AM EST 5:18 PM EST
Nautical Twilight 5:32 AM EST 5:50 PM EST
Astronomical Twilight 5:01 AM EST 6:22 PM EST
Moon 3:00 PM EST (11/7) 3:33 AM EST (11/7)
Length of Visible Light 11h 14m
Length of Day
10h 17m
Waxing Gibbous, 91% of the Moon is Illuminated
Nov 7
Waxing Gibbous
Nov 10
Full
Nov 18
Last Quarter
Nov 25
New
Dec 2
First Quarter

Hourly Weather History & Observations

Time (EST) Temp. Dew Point Humidity Pressure Visibility Wind Dir Wind Speed Gust Speed Precip Events Conditions
12:54 AM 36.0 °F 33.1 °F 89% 30.41 in 10.0 mi Calm Calm - N/A   Clear
1:54 AM 36.0 °F 32.0 °F 86% 30.40 in 10.0 mi Calm Calm - N/A   Clear
2:54 AM 35.1 °F 30.9 °F 85% 30.40 in 10.0 mi Calm Calm - N/A   Clear
3:54 AM 35.1 °F 30.9 °F 85% 30.39 in 10.0 mi Calm Calm - N/A   Clear
4:54 AM 34.0 °F 30.9 °F 89% 30.40 in 10.0 mi Calm Calm - N/A   Clear
5:32 AM 35.6 °F 30.2 °F 81% 30.39 in 10.0 mi Calm Calm - N/A   Mostly Cloudy
5:54 AM 36.0 °F 32.0 °F 86% 30.40 in 10.0 mi Calm Calm - N/A   Overcast
6:38 AM 33.8 °F 30.2 °F 87% 30.40 in 3.0 mi Calm Calm - N/A   Overcast
6:54 AM 33.1 °F 32.0 °F 96% 30.41 in 0.2 mi Calm Calm - N/A Fog Fog
7:40 AM 39.2 °F 37.4 °F 93% 30.41 in 0.2 mi Calm Calm - N/A Fog Fog
7:54 AM 42.1 °F 39.9 °F 92% 30.41 in 4.0 mi Calm Calm - N/A   Mostly Cloudy
8:13 AM 44.6 °F 42.8 °F 93% 30.41 in 7.0 mi Calm Calm - N/A   Scattered Clouds
8:54 AM 51.1 °F 48.0 °F 89% 30.41 in 10.0 mi SW 4.6 mph - N/A   Clear
9:54 AM 57.0 °F 48.0 °F 72% 30.40 in 10.0 mi SW 9.2 mph - N/A   Clear
10:54 AM 60.1 °F 46.9 °F 62% 30.38 in 10.0 mi WSW 6.9 mph - N/A   Clear
11:54 AM 62.1 °F 46.0 °F 56% 30.35 in 10.0 mi West 6.9 mph - N/A   Clear
12:54 PM 64.0 °F 46.0 °F 52% 30.32 in 10.0 mi Variable 5.8 mph - N/A   Clear
1:54 PM 64.9 °F 45.0 °F 48% 30.31 in 10.0 mi Variable 6.9 mph - N/A   Clear
2:54 PM 64.9 °F 44.1 °F 47% 30.30 in 10.0 mi West 8.1 mph - N/A   Clear
3:54 PM 63.0 °F 42.1 °F 46% 30.29 in 10.0 mi WSW 5.8 mph - N/A   Clear
4:54 PM 59.0 °F 44.1 °F 58% 30.29 in 10.0 mi SW 3.5 mph - N/A   Clear
5:54 PM 53.1 °F 44.1 °F 71% 30.31 in 10.0 mi Calm Calm - N/A   Clear
6:54 PM 46.0 °F 41.0 °F 83% 30.32 in 10.0 mi Calm Calm - N/A   Clear
7:54 PM 46.9 °F 43.0 °F 86% 30.32 in 10.0 mi Calm Calm - N/A   Clear
8:57 PM 41.0 °F 37.4 °F 87% 30.32 in 1.5 mi Calm Calm - N/A   Clear
9:18 PM 41.0 °F 39.2 °F 93% 30.32 in 2.0 mi Calm Calm - N/A   Clear
9:26 PM 42.8 °F 39.2 °F 87% 30.32 in 4.0 mi Calm Calm - N/A   Clear
9:54 PM 43.0 °F 39.9 °F 89% 30.32 in 9.0 mi Calm Calm - N/A   Clear
10:54 PM 41.0 °F 37.9 °F 89% 30.30 in 9.0 mi Calm Calm - N/A   Clear
11:23 PM 39.2 °F 37.4 °F 93% 30.30 in 0.8 mi Calm Calm - N/A   Clear
11:35 PM 39.2 °F 37.4 °F 93% 30.30 in 3.0 mi Calm Calm - N/A   Clear
11:45 PM 39.2 °F 37.4 °F 93% 30.30 in 1.8 mi Calm Calm - N/A   Clear